Regional Weather Roundup
Issued by NWS Jackson, KY

Home | Current Version | Previous Version | Graphics & Text | Print | Product List | Glossary On
Versions: 1 2 3 4 5 6 7 8 9 10 11 12 13 14 15 16 17 18 19 20 21 22 23 24 25 26 27
000
ASUS43 KJKL 161910
RWRJKL

EAST KENTUCKY HOURLY WEATHER ROUNDUP
NATIONAL WEATHER SERVICE JACKSON KY
200 PM EST FRI FEB 16 2018

NOTE: "FAIR" INDICATES FEW OR NO CLOUDS BELOW 12,000 FEET WITH
NO SIGNIFICANT WEATHER AND/OR OBSTRUCTIONS TO VISIBILITY.

* THESE REPORTS ARE NOT UNDER NWS QUALITY CONTROL AND MAY NOT
  REPORT WEATHER SUCH AS PRECIPITATION AND FOG.

KYZ079-080-083-085-087-088-110-112-115-119-120-162000
...EASTERN KENTUCKY...

CITY           SKY/WX    TMP DP  RH WIND       PRES   REMARKS
JACKSON        LGT RAIN  45  43  93 NW5       30.06R
LONDON         LGT RAIN  46  43  89 N8        30.08S
SOMERSET*      RAIN      45  45 100 N7        30.12R
WILLIAMSBURG*  CLOUDY    45  45 100 NW3       30.10R
MIDDLESBORO*   DRIZZLE   49  48  97 NE6       30.07R
HARLAN APT*    CLOUDY    50  45  81 NW6       30.04S
PIKE CO APT*   LGT RAIN  46  46 100 NW12      30.04R
BIG SANDY APT* RAIN      46  46  99 NW3       30.05R
MOREHEAD APT*  CLOUDY    45  41  87 NW12G21   30.10R
ASHLAND*       LGT RAIN  45  42  89 N13       30.07R
$$

KYZ035-036-041-042-044-050-067-078-099-162000
...CENTRAL KENTUCKY...

CITY           SKY/WX    TMP DP  RH WIND       PRES   REMARKS
MT STERLING*   DRIZZLE   43  41  93 N9        30.10S
FLEMING/MASON* PTSUNNY   42  38  83 N10       30.11R
DANVILLE*      CLOUDY    43  41  93 NW9       30.13S
LEXINGTON      CLOUDY    45  39  79 N14G21    30.12R
FRANKFORT      CLOUDY    44  37  76 N15G22    30.12R
LOUISVILLE     CLOUDY    44  38  79 N17       30.17R HAZE
LEBANON*       CLOUDY    43  43 100 N9        30.14R
GLASGOW*       CLOUDY   N/A N/A N/A NW9G16    30.16R
BOWLING GREEN  CLOUDY    45  42  89 NW7G26    30.19R
$$

KYZ091>093-OHZ055-061-077-WVZ005-015-034-035-042-162000
...SOUTHERN OHIO/WEST VIRGINIA...

CITY           SKY/WX    TMP DP  RH WIND       PRES   REMARKS
COVINGTON      CLOUDY    40  36  86 NW14      30.11F WCI  32
COLUMBUS       CLOUDY    39  33  79 NW17      30.07R WCI  30
DAYTON         CLOUDY    38  31  76 NW17      30.12R WCI  28
WILMINGTON     CLOUDY    40  35  83 NW14      30.09R WCI  32
HUNTINGTON     CLOUDY    46  43  89 VRB3      30.05R
CHARLESTON     RAIN      46  44  93 SW3       30.01R FOG
BECKLEY        LGT RAIN  46  32  58 N10       29.96R
BLUEFIELD      LGT RAIN  50  47  89 NW9G18    29.95R
LOGAN CO APT*  LGT RAIN  45  43  93 NW8G16    30.02R
$$

VAZ002-007-008-TNZ017-027-036-066-071-162000
...SOUTHWEST VIRGINIA/EAST TENNESSEE...

CITY           SKY/WX    TMP DP  RH WIND       PRES   REMARKS
WISE*          LGT RAIN  48  48 100 NW10G24   30.01R
JONESVILLE*    LGT RAIN  50  50 100 NW6       30.04R
ABINGDON*      RAIN      56  54  91 NW8       29.95R
BRISTOL        LGT RAIN  57  56  96 NW13      29.96R FOG
MORRISTOWN*    CLOUDY    54  52  94 N17G23    29.99R FOG
SEVIERVILLE*   CLOUDY    57  55  94 NW8G17    29.99R FOG
KNOXVILLE      LGT RAIN  55  52  89 N25G35    30.01R FOG
LAFOLLETTE*    MOCLDY    50  46  87 VRB3      30.09R FOG
OAK RIDGE      LGT RAIN  54  50  86 VRB3      30.04
CROSSVILLE     LGT RAIN  46  44  93 N8        30.09S FOG
NASHVILLE      LGT RAIN  47  44  90 NW10      30.18R FOG
$$

...KEY TO REMARKS...
VSB - VISIBILITY IN MILES
WCI - WIND CHILL INDEX
HX  - HEAT INDEX

$$




USA.gov is the U.S. government's official web portal to all federal, state and local government web resources and services.